Time,TemperatureF,DewpointF,PressureIn,WindDirection,WindDirectionDegrees,WindSpeedMPH,WindSpeedGustMPH,Humidity,HourlyPrecipIn,Conditions,Clouds,dailyrainin,SolarRadiationWatts/m^2,SoftwareType,DateUTC
2013-02-27 00:01:00,18.0,13.0,-100.00,West,272,0.0,4.0,79,0.00,,,0.00,0.000000,,2013-02-27 07:01:00,
2013-02-27 00:12:00,18.0,13.0,-100.00,West,272,0.0,4.0,79,0.00,,,0.00,0.000000,,2013-02-27 07:12:00,
2013-02-27 00:21:00,18.0,13.0,-100.00,West,272,0.0,4.0,79,0.00,,,0.00,0.000000,,2013-02-27 07:21:00,
2013-02-27 00:52:00,15.0,11.0,-100.00,South,188,0.0,0.0,84,0.00,,,0.00,0.000000,,2013-02-27 07:52:00,
2013-02-27 01:01:00,15.0,11.0,-100.00,South,188,0.0,0.0,84,0.00,,,0.00,0.000000,,2013-02-27 08:01:00,
2013-02-27 01:11:00,15.0,11.0,-100.00,South,188,0.0,0.0,84,0.00,,,0.00,0.000000,,2013-02-27 08:11:00,
2013-02-27 01:21:00,15.0,11.0,-100.00,South,188,0.0,0.0,84,0.00,,,0.00,0.000000,,2013-02-27 08:21:00,
2013-02-27 01:53:00,14.0,11.0,-100.00,SSW,206,0.0,0.0,86,0.00,,,0.00,0.000000,,2013-02-27 08:53:00,
2013-02-27 02:01:00,14.0,11.0,-100.00,SSW,206,0.0,0.0,86,0.00,,,0.00,0.000000,,2013-02-27 09:01:00,
2013-02-27 02:11:00,14.0,11.0,-100.00,SSW,206,0.0,0.0,86,0.00,,,0.00,0.000000,,2013-02-27 09:11:00,
2013-02-27 02:21:00,14.0,11.0,-100.00,SSW,206,0.0,0.0,86,0.00,,,0.00,0.000000,,2013-02-27 09:21:00,
2013-02-27 02:52:00,12.0,10.0,-100.00,SE,127,0.0,0.0,91,0.00,,,0.00,0.000000,,2013-02-27 09:52:00,
2013-02-27 03:01:00,12.0,10.0,-100.00,SE,127,0.0,0.0,91,0.00,,,0.00,0.000000,,2013-02-27 10:01:00,
2013-02-27 03:12:00,12.0,10.0,-100.00,SE,127,0.0,0.0,91,0.00,,,0.00,0.000000,,2013-02-27 10:12:00,
2013-02-27 03:21:00,12.0,10.0,-100.00,SE,127,0.0,0.0,91,0.00,,,0.00,0.000000,,2013-02-27 10:21:00,
2013-02-27 03:52:00,12.0,10.0,-100.00,SSE,158,0.0,0.0,92,0.00,,,0.00,0.000000,,2013-02-27 10:52:00,
2013-02-27 04:01:00,12.0,10.0,-100.00,SSE,158,0.0,0.0,92,0.00,,,0.00,0.000000,,2013-02-27 11:01:00,
2013-02-27 04:11:00,12.0,10.0,-100.00,SSE,158,0.0,0.0,92,0.00,,,0.00,0.000000,,2013-02-27 11:11:00,
2013-02-27 04:21:00,12.0,10.0,-100.00,SSE,158,0.0,0.0,92,0.00,,,0.00,0.000000,,2013-02-27 11:21:00,
2013-02-27 04:52:00,12.0,10.0,-100.00,SSW,203,0.0,0.0,90,0.00,,,0.00,0.000000,,2013-02-27 11:52:00,
2013-02-27 05:02:00,12.0,10.0,-100.00,SSW,203,0.0,0.0,90,0.00,,,0.00,0.000000,,2013-02-27 12:02:00,
2013-02-27 05:12:00,12.0,10.0,-100.00,SSW,203,0.0,0.0,90,0.00,,,0.00,0.000000,,2013-02-27 12:12:00,
2013-02-27 05:21:00,12.0,10.0,-100.00,SSW,203,0.0,0.0,90,0.00,,,0.00,0.000000,,2013-02-27 12:21:00,
2013-02-27 05:52:00,12.0,10.0,-100.00,West,267,0.0,0.0,92,0.00,,,0.00,0.000000,,2013-02-27 12:52:00,
2013-02-27 06:02:00,12.0,10.0,-100.00,West,267,0.0,0.0,92,0.00,,,0.00,0.000000,,2013-02-27 13:02:00,
2013-02-27 06:11:00,12.0,10.0,-100.00,West,267,0.0,0.0,92,0.00,,,0.00,0.000000,,2013-02-27 13:11:00,
2013-02-27 06:21:00,12.0,10.0,-100.00,West,267,0.0,0.0,92,0.00,,,0.00,0.000000,,2013-02-27 13:21:00,
2013-02-27 06:52:00,12.0,10.0,-100.00,ESE,105,0.0,0.0,91,0.00,,,0.00,0.000000,,2013-02-27 13:52:00,
2013-02-27 07:02:00,12.0,10.0,-100.00,ESE,105,0.0,0.0,91,0.00,,,0.00,0.000000,,2013-02-27 14:02:00,
2013-02-27 07:11:00,12.0,10.0,-100.00,ESE,105,0.0,0.0,91,0.00,,,0.00,0.000000,,2013-02-27 14:11:00,
2013-02-27 07:21:00,12.0,10.0,-100.00,ESE,105,0.0,0.0,91,0.00,,,0.00,0.000000,,2013-02-27 14:21:00,
2013-02-27 07:52:00,11.0,9.0,-100.00,East,79,0.0,0.0,92,0.00,,,0.00,0.000000,,2013-02-27 14:52:00,
2013-02-27 08:02:00,11.0,9.0,-100.00,East,79,0.0,0.0,92,0.00,,,0.00,0.000000,,2013-02-27 15:02:00,
2013-02-27 08:22:00,11.0,9.0,-100.00,East,79,0.0,0.0,92,0.00,,,0.00,0.000000,,2013-02-27 15:22:00,
2013-02-27 08:52:00,12.0,9.0,-100.00,NNE,12,0.0,3.0,88,0.00,,,-99.99,9.000000,,2013-02-27 15:52:00,
2013-02-27 09:01:00,12.0,9.0,-100.00,NNE,12,0.0,3.0,88,0.00,,,-99.99,9.000000,,2013-02-27 16:01:00,
2013-02-27 09:11:00,12.0,9.0,-100.00,NNE,12,0.0,3.0,88,0.00,,,-99.99,9.000000,,2013-02-27 16:11:00,
2013-02-27 09:21:00,12.0,9.0,-100.00,NNE,12,0.0,3.0,88,0.00,,,-99.99,9.000000,,2013-02-27 16:21:00,
2013-02-27 09:52:00,16.0,11.0,-100.00,North,354,0.0,4.0,82,-99.99,,,0.00,64.000000,,2013-02-27 16:52:00,
2013-02-27 10:01:00,16.0,11.0,-100.00,North,354,0.0,4.0,82,-99.99,,,0.00,64.000000,,2013-02-27 17:01:00,
2013-02-27 10:11:00,16.0,11.0,-100.00,North,354,0.0,4.0,82,-99.99,,,0.00,64.000000,,2013-02-27 17:11:00,
2013-02-27 10:21:00,16.0,11.0,-100.00,North,354,0.0,4.0,82,-99.99,,,0.00,64.000000,,2013-02-27 17:21:00,
2013-02-27 10:52:00,20.0,12.0,-100.00,NNE,13,2.0,4.0,72,-99.99,,,0.00,158.000000,,2013-02-27 17:52:00,
2013-02-27 11:01:00,20.0,12.0,-100.00,NNE,13,2.0,4.0,72,-99.99,,,0.00,158.000000,,2013-02-27 18:01:00,
2013-02-27 11:11:00,20.0,12.0,-100.00,NNE,13,2.0,4.0,72,-99.99,,,0.00,158.000000,,2013-02-27 18:11:00,
2013-02-27 11:21:00,20.0,12.0,-100.00,NNE,13,2.0,4.0,72,-99.99,,,0.00,158.000000,,2013-02-27 18:21:00,
2013-02-27 11:52:00,26.0,15.0,-100.00,NNW,338,0.0,6.0,62,-99.99,,,0.00,389.000000,,2013-02-27 18:52:00,
2013-02-27 12:01:00,26.0,15.0,-100.00,NNW,338,0.0,6.0,62,-99.99,,,0.00,389.000000,,2013-02-27 19:01:00,
2013-02-27 12:11:00,26.0,15.0,-100.00,NNW,338,0.0,6.0,62,-99.99,,,0.00,389.000000,,2013-02-27 19:11:00,
2013-02-27 12:21:00,26.0,15.0,-100.00,NNW,338,0.0,6.0,62,-99.99,,,0.00,389.000000,,2013-02-27 19:21:00,
2013-02-27 12:52:00,36.0,13.0,-100.00,SW,223,7.0,10.0,39,-99.99,,,0.00,638.000000,,2013-02-27 19:52:00,
2013-02-27 13:01:00,36.0,13.0,-100.00,SW,223,7.0,10.0,39,-99.99,,,0.00,638.000000,,2013-02-27 20:01:00,
2013-02-27 13:11:00,36.0,13.0,-100.00,SW,223,7.0,10.0,39,-99.99,,,0.00,638.000000,,2013-02-27 20:11:00,
2013-02-27 13:21:00,36.0,13.0,-100.00,SW,223,7.0,10.0,39,-99.99,,,0.00,638.000000,,2013-02-27 20:21:00,
2013-02-27 13:52:00,37.0,13.0,-100.00,SW,223,8.0,15.0,36,0.00,,,-99.99,510.000000,,2013-02-27 20:52:00,
2013-02-27 14:01:00,37.0,13.0,-100.00,SW,223,8.0,15.0,36,0.00,,,-99.99,510.000000,,2013-02-27 21:01:00,
2013-02-27 14:11:00,37.0,13.0,-100.00,SW,223,8.0,15.0,36,0.00,,,-99.99,510.000000,,2013-02-27 21:11:00,
2013-02-27 14:21:00,37.0,13.0,-100.00,SW,223,8.0,15.0,36,0.00,,,-99.99,510.000000,,2013-02-27 21:21:00,
2013-02-27 14:52:00,40.0,17.0,-100.00,North,3,3.0,15.0,39,0.00,,,0.00,590.000000,,2013-02-27 21:52:00,
2013-02-27 15:01:00,40.0,17.0,-100.00,North,3,3.0,15.0,39,0.00,,,0.00,590.000000,,2013-02-27 22:01:00,
2013-02-27 15:11:00,40.0,17.0,-100.00,North,3,3.0,15.0,39,0.00,,,0.00,590.000000,,2013-02-27 22:11:00,
2013-02-27 15:21:00,40.0,17.0,-100.00,North,3,3.0,15.0,39,0.00,,,0.00,590.000000,,2013-02-27 22:21:00,
2013-02-27 15:52:00,40.0,14.0,-100.00,NNW,342,4.0,10.0,34,0.00,,,0.00,440.000000,,2013-02-27 22:52:00,
2013-02-27 16:01:00,40.0,14.0,-100.00,NNW,342,4.0,10.0,34,0.00,,,0.00,440.000000,,2013-02-27 23:01:00,
2013-02-27 16:11:00,40.0,14.0,-100.00,NNW,342,4.0,10.0,34,0.00,,,0.00,440.000000,,2013-02-27 23:11:00,
2013-02-27 16:21:00,40.0,14.0,-100.00,NNW,342,4.0,10.0,34,0.00,,,0.00,440.000000,,2013-02-27 23:21:00,
2013-02-27 16:53:00,43.0,6.0,-100.00,North,353,7.0,18.0,21,0.00,,,0.00,463.000000,,2013-02-27 23:53:00,
2013-02-27 17:01:00,43.0,6.0,-100.00,North,353,7.0,18.0,21,0.00,,,0.00,463.000000,,2013-02-28 00:01:00,
2013-02-27 17:11:00,43.0,6.0,-100.00,North,353,7.0,18.0,21,0.00,,,0.00,463.000000,,2013-02-28 00:11:00,
2013-02-27 17:21:00,43.0,6.0,-100.00,North,353,7.0,18.0,21,0.00,,,0.00,463.000000,,2013-02-28 00:21:00,
2013-02-27 17:52:00,42.0,9.0,-100.00,North,354,4.0,19.0,25,0.00,,,-99.99,383.000000,,2013-02-28 00:52:00,
2013-02-27 18:01:00,42.0,9.0,-100.00,North,354,4.0,19.0,25,0.00,,,-99.99,383.000000,,2013-02-28 01:01:00,
2013-02-27 18:11:00,42.0,9.0,-100.00,North,354,4.0,19.0,25,0.00,,,-99.99,383.000000,,2013-02-28 01:11:00,
2013-02-27 18:21:00,42.0,9.0,-100.00,North,354,4.0,19.0,25,0.00,,,-99.99,383.000000,,2013-02-28 01:21:00,
2013-02-27 18:52:00,39.0,8.0,-100.00,North,357,7.0,18.0,27,0.00,,,0.00,79.000000,,2013-02-28 01:52:00,
2013-02-27 19:01:00,39.0,8.0,-100.00,North,357,7.0,18.0,27,0.00,,,0.00,79.000000,,2013-02-28 02:01:00,
2013-02-27 19:11:00,39.0,8.0,-100.00,North,357,7.0,18.0,27,0.00,,,0.00,79.000000,,2013-02-28 02:11:00,
2013-02-27 19:21:00,39.0,8.0,-100.00,North,357,7.0,18.0,27,0.00,,,0.00,79.000000,,2013-02-28 02:21:00,
2013-02-27 20:01:00,35.0,6.0,-100.00,SSW,211,0.0,17.0,29,0.00,,,0.00,5.000000,,2013-02-28 03:01:00,
2013-02-27 20:11:00,35.0,6.0,-100.00,SSW,211,0.0,17.0,29,0.00,,,0.00,5.000000,,2013-02-28 03:11:00,
2013-02-27 20:21:00,35.0,6.0,-100.00,SSW,211,0.0,17.0,29,0.00,,,0.00,5.000000,,2013-02-28 03:21:00,
2013-02-27 20:52:00,32.0,11.0,-100.00,SSW,201,2.0,11.0,41,0.00,,,0.00,0.000000,,2013-02-28 03:52:00,
2013-02-27 21:01:00,32.0,11.0,-100.00,SSW,201,2.0,11.0,41,0.00,,,0.00,0.000000,,2013-02-28 04:01:00,
2013-02-27 21:11:00,32.0,11.0,-100.00,SSW,201,2.0,11.0,41,0.00,,,0.00,0.000000,,2013-02-28 04:11:00,
2013-02-27 21:21:00,32.0,11.0,-100.00,SSW,201,2.0,11.0,41,0.00,,,0.00,0.000000,,2013-02-28 04:21:00,
2013-02-27 21:52:00,29.0,14.0,-100.00,SW,226,0.0,8.0,52,0.00,,,0.00,0.000000,,2013-02-28 04:52:00,
2013-02-27 22:01:00,29.0,14.0,-100.00,SW,226,0.0,8.0,52,0.00,,,0.00,0.000000,,2013-02-28 05:01:00,
2013-02-27 22:11:00,29.0,14.0,-100.00,SW,226,0.0,8.0,52,0.00,,,0.00,0.000000,,2013-02-28 05:11:00,
2013-02-27 22:22:00,29.0,14.0,-100.00,SW,226,0.0,8.0,52,0.00,,,0.00,0.000000,,2013-02-28 05:22:00,
2013-02-27 22:52:00,25.0,13.0,-100.00,ESE,105,0.0,7.0,60,0.00,,,0.00,0.000000,,2013-02-28 05:52:00,
2013-02-27 23:01:00,25.0,13.0,-100.00,ESE,105,0.0,7.0,60,0.00,,,0.00,0.000000,,2013-02-28 06:01:00,
2013-02-27 23:11:00,25.0,13.0,-100.00,ESE,105,0.0,7.0,60,0.00,,,0.00,0.000000,,2013-02-28 06:11:00,
2013-02-27 23:22:00,25.0,13.0,-100.00,ESE,105,0.0,7.0,60,0.00,,,0.00,0.000000,,2013-02-28 06:22:00,
2013-02-27 23:52:00,24.0,15.0,-100.00,North,356,0.0,4.0,67,0.00,,,0.00,0.000000,,2013-02-28 06:52:00,